Location: ???????
(55.4362°N, 38.1183°E)
Time: 10:07:13
(UTC+00:00)

Lacrosse 4 Rocket - Visible Passes

Search period start: 23 October 2021 00:00
Search period end: 02 November 2021 00:00
Orbit: 540 x 616 km, 68.0° (Epoch: 23 October)

Date Brightness Start Highest point End Pass type
(mag) Time Alt. Az. Time Alt. Az. Time Alt. Az.
23 Oct 2.0 15:47:15 10° NW 15:51:29 61° SW 15:55:48 10° SSE visible
23 Oct 4.5 17:28:09 10° W 17:29:19 11° WSW 17:30:31 10° WSW visible
24 Oct 2.6 15:51:41 10° NW 15:55:47 43° WSW 15:59:56 10° SSE visible
25 Oct 3.3 15:56:12 10° NW 16:00:02 31° WSW 16:03:54 10° S visible
26 Oct 3.9 16:00:49 10° WNW 16:04:14 23° WSW 16:07:40 10° SSW visible
27 Oct 4.4 16:05:38 10° WNW 16:08:23 17° WSW 16:11:09 10° SSW visible
28 Oct 2.1 14:30:20 10° NW 14:34:37 64° SW 14:38:58 10° SSE visible
28 Oct 4.8 16:10:57 10° W 16:12:30 12° WSW 16:14:03 10° SW visible
29 Oct 2.8 14:34:46 10° NW 14:38:54 46° WSW 14:43:06 10° SSE visible
30 Oct 3.5 14:39:16 10° NW 14:43:09 33° WSW 14:47:06 10° S visible
31 Oct 4.2 14:43:51 10° WNW 14:47:22 24° WSW 14:50:54 10° SSW visible
01 Nov 4.7 14:48:37 10° WNW 14:51:32 18° WSW 14:54:27 10° SSW visible
